2015-04-25 00:37:00,0.0,,,,,,,,,,,,,,,,,,0.09,-272.73,-272.78,-1,1001,-2,21.3,5.1,-19.7,20.9,5.3,-19.3,5.73,1.96,-14.7,25.6
2015-04-25 00:42:00,0.0,,,,,,,,,,,,,,,,,,0.09,-272.73,-272.78,-0,961,-2,21.3,5.0,-19.9,20.9,5.2,-19.6,5.73,1.90,-13.5,25.6
2015-04-25 00:43:00,0.0,,,,,,,,,,,,,,,,,,0.09,-272.72,-272.77,-0,963,-1,21.3,5.0,-19.9,20.9,5.2,-19.7,5.73,2.03,-13.5,25.6
2015-04-25 00:44:00,0.0,,,,,,,,,,,,,,,,,,0.09,-272.72,-272.77,-1,964,-1,21.2,5.0,-19.9,20.9,5.2,-19.7,5.73,1.98,-13.6,25.6
2015-04-25 00:45:00,0.0,,,,,,,,,,,,,,,,,,0.09,-272.72,-272.78,-1,965,-1,21.2,5.1,-19.7,20.9,5.3,-19.5,5.73,1.92,-13.6,25.7
"startDT [UTC]","vpos","CH4 [ppm]","stdev(CH4) [ppm]","CO2 [ppm]","stdev(CO2) [ppm]","H2O_reported [%]","stdev(H2O_reported)","CavityPressure [torr]","CavityTemp [C]","OutletValve","CH4_dry [ppm]","CO2_dry [ppm]","DasTemp [C]","EtalonTemp [C]","WarmBoxTemp [C]","MPVPosition","T_ECpre [C]","T_EC1 [C]","T_EC2 [C]","p_inlet [hPa]","p_in [hPa]","p_out [hPa]","T_inlet [C]","RH_inlet [%]","dwpt_inlet [C]","T_vent [C]","RH_vent [%]","dwpt_vent [C]","flow_vent [l min-1]","flow_inlet [l min-1]","dwpt_sample [C]","T_room [C]"
2015-04-25 01:06:00,0.0,1.91656,0.00036,404.417,0.036,0.2075,0.0019,139.999,44.998,34179.24673,1.92052,405.431,31.970,45.066,44.998,0.00,0.09,-272.72,-272.78,-1,968,-1,21.2,6.1,-17.6,20.8,6.4,-17.4,5.73,1.96,-13.7,25.8
2015-04-25 01:07:00,0.0,1.91655,0.00031,404.385,0.047,0.2164,0.0034,139.998,44.999,34178.71482,1.92061,405.442,32.003,45.067,44.999,0.00,0.09,-272.71,-272.77,-2,967,-1,21.2,6.3,-17.2,20.8,6.5,-17.1,5.73,1.95,-13.6,25.9
2015-04-25 01:08:00,0.0,1.91610,0.00030,404.344,0.027,0.2229,0.0019,139.999,44.999,34182.45929,1.92037,405.434,32.054,45.067,45.000,0.00,0.09,-272.72,-272.78,-1,969,-1,21.3,6.5,-16.7,20.8,6.8,-16.6,5.73,1.95,-13.6,25.9
2015-04-25 01:09:00,0.0,1.91632,0.00044,404.323,0.034,0.2262,0.0019,139.999,45.000,34186.46974,1.92056,405.429,32.101,45.068,45.000,0.00,0.09,-272.72,-272.78,-2,968,-1,21.3,6.6,-16.5,20.9,6.9,-16.4,5.73,1.96,-13.6,25.9
2015-04-25 01:10:00,0.0,1.91626,0.00039,404.348,0.042,0.2212,0.0024,140.002,45.000,34190.17393,1.92047,405.430,32.172,45.068,45.000,0.00,0.09,-272.72,-272.77,-2,969,-1,21.3,6.5,-16.8,20.9,6.8,-16.5,5.73,1.96,-13.6,26.0
2015-04-25 01:11:00,0.0,1.91642,0.00034,404.373,0.037,0.2189,0.0017,139.998,45.001,34193.05250,1.92058,405.444,32.238,45.068,45.000,0.00,0.09,-272.71,-272.78,-2,968,-1,21.4,6.4,-17.0,20.9,6.7,-16.7,5.73,2.11,-13.6,26.1
2015-04-25 01:12:00,0.0,1.91627,0.00032,404.375,0.040,0.2186,0.0015,140.002,45.001,34198.34501,1.92043,405.444,32.334,45.068,45.000,0.00,0.09,-272.73,-272.77,-2,969,-1,21.4,6.4,-16.9,21.0,6.7,-16.7,5.73,2.13,-13.6,26.3
2015-04-25 01:13:00,0.0,1.91612,0.00034,404.359,0.021,0.2218,0.0019,140.000,45.001,34200.80140,1.92031,405.442,32.462,45.068,45.000,0.00,0.09,-272.72,-272.77,-2,968,-1,21.5,6.4,-16.8,21.1,6.7,-16.6,5.73,2.09,-13.6,26.4
2015-04-25 01:14:00,0.0,1.91627,0.00030,404.365,0.030,0.2176,0.0030,139.999,45.001,34201.96597,1.92040,405.430,32.604,45.068,45.000,0.00,0.09,-272.71,-272.77,-2,967,-1,21.6,6.3,-16.9,21.1,6.7,-16.6,5.73,2.08,-13.6,26.5
2015-04-25 01:15:00,0.0,1.91640,0.00037,404.383,0.034,0.2122,0.0019,140.002,45.002,34204.61422,1.92045,405.420,32.716,45.067,45.000,0.00,0.09,-272.72,-272.77,-2,967,-1,21.7,6.1,-17.2,21.2,6.5,-16.9,5.73,2.02,-13.6,26.6
2015-04-25 01:16:00,0.0,1.91618,0.00011,404.366,0.015,0.2114,0.0009,139.995,45.001,34205.69044,1.92001,405.403,32.750,45.067,44.999,0.00,0.09,-272.71,-272.78,-2,967,-2,21.7,6.1,-17.2,21.2,6.4,-17.1,5.73,1.96,-13.6,26.7
2015-04-25 01:17:00,0.0,1.91613,0.00031,404.387,0.038,0.2170,0.0023,140.000,45.001,34207.95777,1.92021,405.448,32.813,45.067,44.999,0.00,0.09,-272.71,-272.77,-2,967,-2,21.8,6.2,-17.1,21.3,6.4,-16.9,5.73,1.93,-13.6,26.7
2015-04-25 01:18:00,0.0,1.91624,0.00065,404.372,0.043,0.2186,0.0018,140.001,45.001,34208.50090,1.92041,405.440,32.832,45.067,44.999,0.00,0.09,-272.72,-272.78,-1,965,-2,21.8,6.3,-16.8,21.3,6.5,-16.7,5.73,1.91,-13.6,26.7
2015-04-25 01:19:00,0.0,1.91592,0.00031,404.349,0.034,0.2203,0.0017,140.002,45.001,34210.81764,1.92009,405.427,32.878,45.067,44.999,0.00,0.09,-272.72,-272.78,-2,965,-2,21.8,6.3,-16.8,21.3,6.6,-16.6,5.73,1.94,-13.6,26.7
2015-04-25 01:20:00,0.0,1.91586,0.00037,404.330,0.029,0.2231,0.0028,140.000,45.000,34211.39974,1.92010,405.420,32.933,45.066,44.998,0.00,0.09,-272.71,-272.77,-1,966,-2,21.8,6.4,-16.7,21.3,6.6,-16.6,5.73,1.93,-13.5,26.8
2015-04-25 01:21:00,0.0,1.91563,0.00022,404.314,0.026,0.2263,0.0016,140.002,45.000,34212.76335,1.91993,405.421,32.938,45.065,44.997,0.00,0.09,-272.72,-272.77,-1,964,-2,21.8,6.5,-16.5,21.4,6.7,-16.4,5.73,1.98,-13.5,26.8
2015-04-25 01:22:00,0.0,1.91597,0.00046,404.288,0.042,0.2313,0.0036,140.001,44.999,34207.89172,1.92033,405.419,32.937,45.065,44.997,0.00,0.09,-272.72,-272.78,-2,966,-2,21.8,6.6,-16.3,21.4,6.8,-16.2,5.73,2.09,-13.5,26.8
2015-04-25 01:23:00,0.0,1.91595,0.00028,404.280,0.038,0.2384,0.0021,139.996,44.999,34205.86843,1.92048,405.444,32.910,45.065,44.997,0.00,0.09,-272.71,-272.77,-1,965,-2,21.8,6.8,-15.9,21.4,7.0,-15.8,5.73,2.07,-13.6,26.7
2015-04-25 01:24:00,0.0,1.91558,0.00033,404.291,0.041,0.2325,0.0025,140.002,44.999,34205.39556,1.92000,405.430,32.872,45.065,44.997,0.00,0.09,-272.71,-272.76,-2,965,-2,21.8,6.7,-16.1,21.4,7.0,-15.9,5.73,2.14,-13.5,26.6
2015-04-25 01:25:00,0.0,1.91553,0.00032,404.304,0.024,0.2340,0.0015,139.999,44.999,34203.57128,1.91997,405.447,32.824,45.065,44.997,0.00,0.09,-272.71,-272.77,-1,965,-2,21.9,6.7,-16.1,21.4,6.9,-16.0,5.73,2.07,-13.5,26.5
2015-04-25 01:26:00,0.0,1.91605,0.00026,404.299,0.040,0.2380,0.0026,140.002,44.999,34200.02157,1.92053,405.461,32.766,45.066,44.998,0.00,0.09,-272.72,-272.77,-2,966,-2,21.9,6.8,-15.9,21.4,7.0,-15.8,5.73,1.97,-13.6,26.4
2015-04-25 01:27:00,0.0,1.91602,0.00044,404.309,0.035,0.2411,0.0022,140.002,44.999,34201.68672,1.92060,405.489,32.678,45.066,44.998,0.00,0.09,-272.71,-272.77,-2,967,-2,21.9,6.9,-15.7,21.5,7.1,-15.6,5.73,1.96,-13.6,26.4
2015-04-25 01:28:00,0.0,1.91620,0.00042,404.291,0.035,0.2434,0.0021,139.999,44.999,34199.24103,1.92081,405.483,32.596,45.066,44.999,0.00,0.09,-272.71,-272.77,-2,968,-2,21.9,6.9,-15.6,21.5,7.2,-15.5,5.73,1.95,-13.5,26.4
2015-04-25 01:29:00,0.0,1.91621,0.00037,404.253,0.024,0.2481,0.0019,139.999,44.999,34198.22595,1.92091,405.467,32.510,45.067,44.999,0.00,0.09,-272.72,-272.78,-2,969,-2,21.9,7.0,-15.4,21.5,7.3,-15.3,5.73,1.93,-13.5,26.4
2015-04-25 01:30:00,0.0,1.91633,0.00050,404.269,0.035,0.2405,0.0059,139.993,44.999,34198.23492,1.92090,405.448,32.402,45.067,44.999,0.00,0.09,-272.71,-272.77,-2,969,-2,22.0,6.8,-15.8,21.5,7.1,-15.5,5.73,1.91,-13.5,26.3
2015-04-25 01:31:00,0.0,1.91643,0.00039,404.310,0.036,0.2277,0.0015,139.995,44.998,34200.63160,1.92079,405.423,32.277,45.067,44.999,0.00,0.09,-272.71,-272.77,-3,971,-2,21.9,6.4,-16.4,21.5,6.8,-16.1,5.73,1.92,-13.5,26.5
2015-04-25 01:32:00,0.0,1.91658,0.00033,404.357,0.040,0.2205,0.0020,139.998,44.998,34200.01164,1.92074,405.438,32.148,45.067,44.999,0.00,0.09,-272.72,-272.78,-3,972,-2,21.9,6.2,-16.9,21.5,6.5,-16.6,5.73,1.95,-13.5,26.5
2015-04-25 01:33:00,0.0,1.91659,0.00040,404.348,0.040,0.2231,0.0025,140.000,44.998,34199.81559,1.92082,405.438,32.033,45.067,44.999,0.00,0.09,-272.73,-272.78,-3,972,-2,22.0,6.3,-16.7,21.5,6.5,-16.6,5.73,1.98,-13.5,26.5
2015-04-25 01:34:00,0.0,1.91638,0.00040,404.331,0.035,0.2259,0.0016,139.997,44.998,34197.77941,1.92066,405.434,31.945,45.067,45.000,0.00,0.09,-272.72,-272.77,-3,973,-2,21.9,6.3,-16.6,21.5,6.6,-16.4,5.73,2.01,-13.5,26.5
2015-04-25 01:35:00,0.0,1.91648,0.00045,404.325,0.029,0.2207,0.0033,140.000,44.998,34196.85176,1.92066,405.406,31.862,45.068,45.000,0.00,0.09,-272.72,-272.77,-3,973,-2,22.0,6.2,-16.8,21.5,6.5,-16.6,5.73,1.99,-13.5,26.5
2015-04-25 01:36:00,0.0,1.91644,0.00038,404.341,0.033,0.2179,0.0017,140.001,44.999,34195.42598,1.92059,405.405,31.796,45.068,45.000,0.00,0.09,-272.72,-272.77,-3,974,-2,22.0,6.1,-17.0,21.5,6.4,-16.8,5.73,1.96,-13.6,26.5
2015-04-25 01:37:00,0.0,1.91660,0.00036,404.376,0.036,0.2170,0.0023,139.998,44.999,34191.31942,1.92067,405.436,31.742,45.068,45.000,0.00,0.09,-272.71,-272.77,-3,974,-2,21.9,6.1,-17.1,21.5,6.4,-16.9,5.73,1.92,-13.5,26.4
2015-04-25 01:38:00,0.0,1.91665,0.00034,404.403,0.026,0.2112,0.0025,139.999,44.999,34189.69919,1.92068,405.437,31.688,45.068,45.000,0.00,0.09,-272.71,-272.77,-4,975,-2,21.9,5.9,-17.4,21.5,6.2,-17.2,5.73,1.90,-13.6,26.4
2015-04-25 01:39:00,0.0,1.91681,0.00037,404.408,0.039,0.2068,0.0020,139.999,44.999,34187.96687,1.92074,405.420,31.629,45.068,45.000,0.00,0.09,-272.72,-272.78,-4,975,-2,21.9,5.8,-17.7,21.5,6.1,-17.4,5.73,1.93,-13.6,26.4
2015-04-25 01:40:00,0.0,1.91688,0.00037,404.393,0.035,0.2054,0.0016,139.995,44.999,34185.69886,1.92080,405.396,31.600,45.068,44.999,0.00,0.09,-272.72,-272.77,-3,975,-2,21.9,5.8,-17.8,21.5,6.0,-17.6,5.73,1.98,-13.6,26.3
2015-04-25 01:41:00,0.0,1.91688,0.00040,404.414,0.030,0.2058,0.0019,140.002,44.999,34186.42665,1.92072,405.420,31.544,45.068,44.999,0.00,0.09,-272.71,-272.77,-3,976,-2,21.9,5.8,-17.8,21.5,6.0,-17.6,5.73,2.01,-13.6,26.3
2015-04-25 01:42:00,0.0,1.91686,0.00037,404.438,0.041,0.2030,0.0023,139.996,44.999,34183.86394,1.92072,405.429,31.501,45.068,44.999,0.00,0.09,-272.72,-272.78,-4,976,-2,21.9,5.7,-18.0,21.5,6.0,-17.7,5.73,2.00,-13.6,26.3
2015-04-25 01:43:00,0.0,1.91734,0.00043,404.474,0.038,0.1985,0.0027,140.002,44.999,34181.76636,1.92110,405.444,31.478,45.067,44.999,0.00,0.09,-272.72,-272.78,-4,976,-2,21.9,5.6,-18.2,21.5,5.9,-17.9,5.73,1.93,-13.6,26.2
2015-04-25 01:44:00,0.0,1.91701,0.00032,404.468,0.029,0.1930,0.0011,139.996,44.999,34181.84034,1.92070,405.411,31.436,45.067,44.999,0.00,0.09,-272.71,-272.77,-4,976,-2,21.9,5.4,-18.5,21.5,5.7,-18.3,5.73,1.89,-13.6,26.2
2015-04-25 01:45:00,0.0,1.91698,0.00036,404.440,0.024,0.1917,0.0022,140.001,44.999,34182.50444,1.92059,405.377,31.404,45.067,44.999,0.00,0.09,-272.72,-272.78,-3,977,-2,21.9,5.4,-18.7,21.5,5.6,-18.4,5.73,1.92,-13.6,26.2
2015-04-25 01:46:00,0.0,1.91708,0.00030,404.468,0.024,0.1911,0.0020,140.001,44.999,34179.90843,1.92070,405.402,31.376,45.068,45.000,0.00,0.09,-272.72,-272.78,-4,977,-2,21.9,5.3,-18.7,21.5,5.6,-18.5,5.73,2.00,-13.6,26.1
2015-04-25 01:47:00,0.0,1.91698,0.00034,404.463,0.034,0.1891,0.0011,139.998,44.999,34178.85323,1.92057,405.386,31.374,45.068,44.999,0.00,0.09,-272.72,-272.77,-4,977,-2,21.9,5.3,-18.8,21.5,5.5,-18.6,5.73,2.01,-13.6,26.1
2015-04-25 01:48:00,0.0,1.91715,0.00044,404.489,0.022,0.1877,0.0025,140.001,44.999,34178.70871,1.92073,405.407,31.368,45.068,44.999,0.00,0.09,-272.71,-272.77,-4,976,-2,21.8,5.2,-19.0,21.5,5.5,-18.7,5.73,1.98,-13.6,26.1
2015-04-25 01:49:00,0.0,1.91697,0.00031,404.504,0.026,0.1856,0.0013,139.997,44.999,34176.66567,1.92046,405.410,31.365,45.068,45.000,0.00,0.09,-272.72,-272.78,-4,977,-2,21.8,5.2,-19.1,21.5,5.4,-18.8,5.73,1.92,-13.6,26.1
2015-04-25 01:50:00,0.0,1.91703,0.00040,404.475,0.027,0.1867,0.0018,139.999,45.000,34175.78109,1.92055,405.387,31.358,45.068,44.999,0.00,0.09,-272.72,-272.78,-3,977,-2,21.8,5.2,-19.0,21.4,5.5,-18.8,5.73,1.89,-13.6,26.0
2015-04-25 01:51:00,0.0,1.91710,0.00043,404.492,0.037,0.1862,0.0008,140.002,44.999,34176.81795,1.92061,405.402,31.357,45.068,44.999,0.00,0.09,-272.71,-272.77,-4,977,-2,21.8,5.2,-19.0,21.4,5.5,-18.8,5.73,1.94,-13.7,26.0
2015-04-25 01:52:00,0.0,1.91715,0.00028,404.506,0.033,0.1848,0.0020,140.000,45.000,34174.23638,1.92067,405.409,31.366,45.068,44.999,0.00,0.09,-272.72,-272.78,-4,977,-2,21.8,5.2,-19.1,21.4,5.4,-18.8,5.73,1.99,-13.7,26.0
2015-04-25 01:53:00,0.0,1.91745,0.00043,404.522,0.029,0.1841,0.0018,139.995,45.000,34169.90250,1.92092,405.420,31.367,45.068,44.999,0.00,0.09,-272.72,-272.78,-4,977,-2,21.8,5.2,-19.2,21.4,5.4,-18.9,5.73,2.01,-13.7,26.0
2015-04-25 01:54:00,0.0,1.91727,0.00040,404.517,0.034,0.1862,0.0019,140.003,45.000,34170.50731,1.92083,405.428,31.374,45.068,44.999,0.00,0.09,-272.72,-272.77,-4,977,-2,21.8,5.2,-19.1,21.4,5.4,-18.8,5.73,1.97,-13.7,25.8
2015-04-25 01:55:00,0.0,1.91716,0.00034,404.508,0.042,0.1834,0.0030,139.998,45.000,34172.07220,1.92063,405.405,31.403,45.068,44.999,0.00,0.09,-272.72,-272.78,-4,977,-2,21.8,5.2,-19.2,21.4,5.4,-18.9,5.73,1.93,-13.7,25.8
2015-04-25 01:56:00,0.0,1.91734,0.00043,404.508,0.025,0.1821,0.0018,140.000,45.000,34172.13743,1.92081,405.397,31.449,45.068,45.000,0.00,0.09,-272.72,-272.78,-4,976,-2,21.7,5.1,-19.3,21.4,5.3,-19.0,5.73,1.92,-13.7,25.7
2015-04-25 01:57:00,0.0,1.91701,0.00032,404.508,0.039,0.1805,0.0016,139.998,45.000,34171.89263,1.92044,405.388,31.533,45.068,45.000,0.00,0.09,-272.71,-272.77,-4,975,-2,21.7,5.1,-19.4,21.4,5.3,-19.1,5.73,1.93,-13.7,25.7
2015-04-25 01:58:00,0.0,1.91719,0.00041,404.536,0.025,0.1766,0.0025,139.999,45.000,34172.59589,1.92053,405.400,31.609,45.068,45.000,0.00,0.09,-272.71,-272.78,-4,975,-2,21.7,5.0,-19.6,21.4,5.2,-19.3,5.73,1.94,-13.7,25.7
2015-04-25 01:59:00,0.0,1.91733,0.00045,404.551,0.020,0.1749,0.0015,140.000,45.000,34171.07852,1.92064,405.406,31.671,45.068,44.999,0.00,0.09,-272.72,-272.78,-4,975,-2,21.7,4.9,-19.7,21.4,5.1,-19.5,5.73,1.95,-13.7,25.7
2015-04-25 02:00:00,3.0,1.88045,0.01234,398.955,2.448,0.0459,0.0584,139.826,45.001,31232.66789,1.88321,399.350,31.755,45.068,44.999,0.00,0.09,-272.72,-272.78,-3,482,-2,21.7,4.9,-19.8,21.4,5.1,-19.6,5.73,1.87,-13.7,25.7
2015-04-25 02:01:00,3.0,1.87561,0.00033,397.623,0.047,0.0109,0.0020,139.995,45.001,30994.30434,1.87578,397.677,31.828,45.068,44.999,0.00,0.09,-272.71,-272.77,-3,482,-2,21.7,4.9,-19.8,21.4,5.1,-19.6,5.73,1.95,-13.7,25.6
2015-04-25 02:02:00,3.0,1.87563,0.00033,397.585,0.035,0.0110,0.0018,139.997,45.001,30944.31835,1.87583,397.635,31.904,45.067,44.999,0.00,0.09,-272.72,-272.77,-3,482,-2,21.7,4.8,-19.9,21.4,5.0,-19.8,5.73,1.95,-13.7,25.7
2015-04-25 02:03:00,3.0,1.87580,0.00038,397.616,0.027,0.0097,0.0021,139.992,45.001,30901.87838,1.87596,397.662,31.960,45.067,44.999,0.00,0.09,-272.73,-272.78,-3,482,-2,21.7,4.8,-20.0,21.4,5.0,-19.8,5.73,1.96,-13.7,25.7
2015-04-25 02:04:00,3.0,1.87592,0.00045,397.633,0.035,0.0076,0.0020,139.997,45.001,30871.39280,1.87606,397.670,32.007,45.067,44.999,0.00,0.09,-272.72,-272.77,-3,482,-2,21.7,4.8,-20.1,21.4,5.0,-19.9,5.73,1.95,-13.7,25.6
2015-04-25 02:05:00,3.0,1.87565,0.00037,397.629,0.024,0.0057,0.0017,139.995,45.001,30844.16449,1.87577,397.656,32.062,45.067,44.999,0.00,0.09,-272.72,-272.77,-3,482,-2,21.7,4.7,-20.3,21.4,4.9,-20.1,5.73,1.95,-13.7,25.7
2015-04-25 02:06:00,3.0,1.87609,0.00033,397.637,0.037,0.0045,0.0032,140.000,45.000,30821.54083,1.87617,397.659,32.104,45.068,44.999,0.00,0.09,-272.72,-272.78,-3,482,-2,21.7,4.7,-20.3,21.4,4.9,-20.1,5.73,1.95,-13.7,25.6
2015-04-25 02:07:00,3.0,1.87599,0.00038,397.617,0.034,0.0033,0.0017,139.999,45.001,30804.72160,1.87606,397.633,32.134,45.068,44.999,0.00,0.09,-272.72,-272.78,-3,483,-2,21.7,4.7,-20.3,21.4,4.9,-20.1,5.73,1.95,-13.7,25.7
2015-04-25 02:08:00,3.0,1.87569,0.00039,397.641,0.032,0.0024,0.0019,139.996,45.000,30788.40914,1.87577,397.653,32.184,45.068,45.000,0.00,0.09,-272.72,-272.77,-3,483,-2,21.8,4.7,-20.3,21.4,4.8,-20.2,5.73,1.94,-13.7,25.7
2015-04-25 02:09:00,3.0,1.87567,0.00031,397.615,0.041,0.0027,0.0020,139.998,45.000,30776.98150,1.87569,397.626,32.197,45.068,45.000,0.00,0.09,-272.72,-272.78,-2,483,-2,21.8,4.7,-20.2,21.4,4.9,-20.1,5.73,1.93,-13.7,25.8
2015-04-25 02:10:00,3.0,1.87586,0.00037,397.648,0.033,0.0018,0.0010,139.997,45.000,30762.13241,1.87587,397.658,32.232,45.068,45.000,0.00,0.09,-272.72,-272.78,-3,483,-2,21.8,4.7,-20.1,21.5,4.9,-20.0,5.73,1.92,-13.7,25.8
2015-04-25 02:11:00,3.0,1.87594,0.00043,397.631,0.030,0.0014,0.0017,139.998,45.000,30752.85149,1.87598,397.639,32.250,45.068,45.000,0.00,0.09,-272.71,-272.77,-3,483,-2,21.9,4.7,-20.2,21.5,4.9,-20.0,5.73,1.92,-13.7,25.9
2015-04-25 02:12:00,3.0,1.87601,0.00038,397.642,0.028,0.0007,0.0016,139.999,45.000,30744.94585,1.87602,397.645,32.250,45.068,45.000,0.00,0.09,-272.72,-272.78,-3,483,-2,21.9,4.7,-20.3,21.5,4.8,-20.2,5.73,1.90,-13.7,25.8
2015-04-25 02:13:00,3.0,1.87641,0.00027,397.633,0.030,0.0015,0.0018,139.998,45.000,30735.69250,1.87642,397.641,32.250,45.068,45.000,0.00,0.09,-272.72,-272.78,-3,483,-2,21.9,4.7,-20.3,21.5,4.8,-20.1,5.73,1.90,-13.7,25.9
2015-04-25 02:14:00,3.0,1.87617,0.00028,397.638,0.033,0.0006,0.0013,140.000,45.000,30730.06110,1.87619,397.641,32.234,45.068,45.000,0.00,0.09,-272.72,-272.77,-3,483,-2,21.9,4.7,-20.2,21.6,4.9,-20.0,5.73,1.90,-13.7,25.9
2015-04-25 02:15:00,3.0,1.87602,0.00033,397.653,0.035,0.0006,0.0018,140.000,45.000,30723.08925,1.87604,397.656,32.180,45.068,45.000,0.00,0.09,-272.72,-272.77,-3,483,-2,21.9,4.7,-20.1,21.5,4.9,-20.0,5.73,1.97,-13.7,25.9
2015-04-25 02:16:00,3.0,1.87611,0.00040,397.636,0.024,0.0009,0.0021,139.995,44.999,30714.83311,1.87612,397.639,32.130,45.068,45.000,0.00,0.09,-272.73,-272.78,-3,484,-2,21.9,4.7,-20.1,21.6,4.9,-19.9,5.73,1.99,-13.7,26.0
2015-04-25 02:17:00,3.0,1.87607,0.00038,397.634,0.026,0.0009,0.0017,139.999,44.999,30710.03304,1.87610,397.640,32.094,45.068,45.000,0.00,0.09,-272.72,-272.77,-3,484,-2,21.9,4.7,-20.1,21.6,4.9,-19.9,5.73,1.95,-13.7,26.1
2015-04-25 02:18:00,3.0,1.87589,0.00040,397.623,0.026,0.0012,0.0013,139.999,44.999,30707.06720,1.87589,397.628,32.040,45.068,45.000,0.00,0.09,-272.71,-272.77,-4,484,-2,21.9,4.7,-20.2,21.6,4.8,-20.1,5.73,1.89,-13.7,26.0
2015-04-25 02:19:00,3.0,1.87607,0.00036,397.606,0.024,0.0008,0.0023,140.000,44.999,30702.56269,1.87609,397.609,31.994,45.069,45.000,0.00,0.09,-272.72,-272.77,-3,484,-2,21.9,4.7,-20.2,21.6,4.9,-20.0,5.73,1.87,-13.7,26.1
2015-04-25 02:20:00,3.0,1.87603,0.00031,397.637,0.030,0.0002,0.0016,140.000,45.000,30696.20343,1.87604,397.637,31.946,45.069,45.000,0.00,0.09,-272.72,-272.78,-3,484,-2,21.9,4.7,-20.1,21.6,4.9,-19.9,5.73,1.94,-13.7,26.1
2015-04-25 02:21:00,3.0,1.87603,0.00030,397.643,0.028,0.0008,0.0023,140.001,44.999,30693.36366,1.87603,397.646,31.934,45.069,45.000,0.00,0.09,-272.71,-272.77,-4,484,-2,21.9,4.7,-20.0,21.6,4.9,-19.9,5.73,2.01,-13.7,26.1
2015-04-25 02:22:00,3.0,1.87604,0.00045,397.650,0.033,0.0001,0.0015,139.995,44.999,30686.07064,1.87605,397.651,31.917,45.069,45.000,0.00,0.09,-272.72,-272.77,-4,484,-2,22.0,4.7,-20.1,21.6,4.9,-19.9,5.73,1.97,-13.7,26.1
2015-04-25 02:23:00,3.0,1.87624,0.00040,397.661,0.027,0.0017,0.0022,139.994,45.000,30681.40876,1.87626,397.669,31.877,45.069,45.000,0.00,0.09,-272.72,-272.78,-3,484,-2,22.0,4.7,-20.2,21.6,4.9,-20.0,5.73,1.88,-13.7,26.1
2015-04-25 02:24:00,3.0,1.87614,0.00032,397.655,0.025,-0.0003,0.0015,139.999,45.000,30678.97413,1.87613,397.653,31.873,45.069,45.000,0.00,0.09,-272.71,-272.77,-3,484,-2,21.9,4.7,-20.2,21.6,4.8,-20.0,5.73,1.87,-13.7,26.1
2015-04-25 02:25:00,2.0,1.84989,0.00969,390.827,2.777,0.0081,0.0105,140.079,45.000,31284.19275,1.85143,391.046,31.826,45.069,45.000,0.00,0.09,-272.71,-272.78,-4,573,-2,21.9,4.7,-20.2,21.6,4.8,-20.0,5.73,1.89,-13.7,26.0
2015-04-25 02:26:00,2.0,1.84582,0.00033,389.662,0.030,0.0052,0.0021,140.000,45.000,31311.41610,1.84592,389.685,31.814,45.069,45.000,0.00,0.09,-272.72,-272.78,-4,575,-2,21.9,4.7,-20.2,21.6,4.8,-20.0,5.73,2.00,-13.7,26.1
2015-04-25 02:27:00,2.0,1.84577,0.00033,389.673,0.022,0.0054,0.0018,140.002,45.000,31328.43149,1.84585,389.699,31.820,45.069,45.000,0.00,0.09,-272.72,-272.77,-3,576,-2,21.9,4.6,-20.3,21.6,4.8,-20.1,5.73,1.95,-13.7,26.1
2015-04-25 02:28:00,2.0,1.84569,0.00033,389.655,0.029,0.0047,0.0020,140.002,45.000,31338.73441,1.84580,389.677,31.820,45.068,45.000,0.00,0.09,-272.72,-272.77,-4,577,-2,21.9,4.7,-20.3,21.6,4.8,-20.1,5.73,1.87,-13.7,26.0
2015-04-25 02:29:00,2.0,1.84577,0.00038,389.654,0.026,0.0038,0.0011,139.999,45.000,31346.04391,1.84578,389.672,31.845,45.068,45.000,0.00,0.09,-272.72,-272.78,-4,577,-2,21.9,4.7,-20.2,21.6,4.8,-20.1,5.73,1.88,-13.7,26.0
2015-04-25 02:30:00,2.0,1.84569,0.00040,389.627,0.028,0.0017,0.0019,139.998,45.000,31350.09497,1.84575,389.637,31.865,45.068,45.000,0.00,0.09,-272.72,-272.78,-3,577,-2,21.9,4.7,-20.3,21.6,4.8,-20.1,5.73,1.98,-13.7,26.0
2015-04-25 02:31:00,2.0,1.84565,0.00041,389.647,0.027,0.0017,0.0017,140.000,45.000,31356.81320,1.84571,389.655,31.828,45.068,44.999,0.00,0.09,-272.72,-272.77,-3,577,-2,21.9,4.7,-20.2,21.6,4.8,-20.1,5.73,2.00,-13.7,26.0
2015-04-25 02:32:00,2.0,1.84564,0.00037,389.661,0.018,0.0019,0.0017,140.001,45.000,31362.75620,1.84564,389.669,31.815,45.068,45.000,0.00,0.09,-272.72,-272.78,-4,577,-2,21.9,4.7,-20.1,21.6,4.9,-20.0,5.73,1.90,-13.7,26.0
2015-04-25 02:33:00,2.0,1.84573,0.00032,389.640,0.035,0.0011,0.0014,139.999,45.000,31365.23216,1.84576,389.645,31.813,45.068,45.000,0.00,0.09,-272.72,-272.78,-4,577,-2,21.9,4.7,-20.1,21.7,4.9,-19.9,5.73,1.85,-13.7,26.0
2015-04-25 02:34:00,2.0,1.84586,0.00033,389.660,0.033,0.0005,0.0027,139.999,45.000,31367.52907,1.84588,389.663,31.815,45.068,45.000,0.00,0.09,-272.71,-272.77,-3,578,-2,21.9,4.7,-20.1,21.7,4.9,-19.9,5.73,1.93,-13.6,26.0
2015-04-25 02:35:00,2.0,1.84562,0.00030,389.646,0.025,0.0004,0.0017,140.000,45.000,31371.24971,1.84564,389.648,31.837,45.068,45.000,0.00,0.09,-272.72,-272.77,-3,578,-2,21.9,4.7,-20.1,21.6,4.9,-19.9,5.73,2.00,-13.6,26.0
2015-04-25 02:36:00,2.0,1.84572,0.00027,389.644,0.024,0.0014,0.0014,139.999,45.000,31373.14942,1.84572,389.651,31.868,45.068,45.000,0.00,0.09,-272.72,-272.78,-4,578,-2,21.9,4.7,-20.2,21.6,4.8,-20.0,5.73,1.96,-13.6,26.0
2015-04-25 02:37:00,2.0,1.84566,0.00042,389.653,0.032,0.0003,0.0024,140.003,45.000,31375.15913,1.84565,389.654,31.864,45.068,44.999,0.00,0.09,-272.72,-272.78,-4,578,-2,21.9,4.7,-20.2,21.6,4.8,-20.0,5.73,1.86,-13.6,26.0
2015-04-25 02:38:00,2.0,1.84577,0.00037,389.674,0.026,0.0007,0.0015,140.003,45.000,31374.79791,1.84580,389.677,31.861,45.068,45.000,0.00,0.09,-272.71,-272.78,-3,578,-2,21.9,4.6,-20.4,21.7,4.7,-20.2,5.73,1.87,-13.6,26.0
2015-04-25 02:39:00,2.0,1.84566,0.00034,389.680,0.033,0.0002,0.0021,140.000,45.000,31375.61829,1.84568,389.682,31.867,45.068,45.000,0.00,0.09,-272.72,-272.78,-4,578,-2,21.9,4.6,-20.4,21.7,4.7,-20.2,5.73,1.97,-13.6,26.0
2015-04-25 02:40:00,2.0,1.84568,0.00029,389.669,0.032,-0.0002,0.0013,140.001,45.000,31377.96265,1.84568,389.668,31.875,45.068,45.000,0.00,0.09,-272.73,-272.78,-4,578,-2,21.9,4.5,-20.6,21.7,4.7,-20.4,5.73,2.01,-13.6,26.0
2015-04-25 02:41:00,2.0,1.84555,0.00037,389.642,0.032,0.0004,0.0014,139.997,45.000,31378.38098,1.84556,389.645,31.875,45.068,45.000,0.00,0.09,-272.72,-272.78,-3,578,-2,21.9,4.4,-20.8,21.7,4.6,-20.6,5.73,1.92,-13.6,26.0
2015-04-25 02:42:00,2.0,1.84587,0.00030,389.690,0.022,-0.0002,0.0016,139.996,45.000,31377.90579,1.84584,389.687,31.875,45.068,45.000,0.00,0.09,-272.72,-272.77,-3,578,-2,21.9,4.4,-20.8,21.7,4.6,-20.6,5.73,1.85,-13.6,26.0
2015-04-25 02:43:00,2.0,1.84597,0.00026,389.695,0.024,-0.0002,0.0016,139.998,45.000,31378.50202,1.84594,389.697,31.876,45.068,45.000,0.00,0.09,-272.73,-272.78,-4,578,-2,21.9,4.4,-20.8,21.7,4.6,-20.6,5.73,1.90,-13.6,26.0
2015-04-25 02:44:00,2.0,1.84579,0.00031,389.668,0.029,-0.0001,0.0015,139.997,45.000,31380.62954,1.84580,389.668,31.876,45.068,45.000,0.00,0.09,-272.72,-272.77,-4,578,-2,21.9,4.5,-20.7,21.7,4.6,-20.6,5.73,2.00,-13.6,25.9
2015-04-25 02:45:00,2.0,1.84550,0.00026,389.653,0.043,-0.0001,0.0017,140.003,45.000,31384.44963,1.84552,389.651,31.882,45.068,45.000,0.00,0.09,-272.72,-272.77,-3,578,-2,21.9,4.4,-20.8,21.7,4.6,-20.6,5.73,1.98,-13.6,26.0
2015-04-25 02:46:00,2.0,1.84578,0.00056,389.678,0.039,0.0002,0.0021,140.000,45.000,31382.90532,1.84578,389.681,31.882,45.068,45.000,0.00,0.09,-272.72,-272.78,-4,578,-2,21.9,4.4,-20.9,21.7,4.6,-20.7,5.73,1.88,-13.6,25.9
2015-04-25 02:47:00,2.0,1.84599,0.00038,389.688,0.037,0.0001,0.0022,140.000,45.000,31381.96753,1.84597,389.686,31.880,45.068,45.000,0.00,0.09,-272.72,-272.78,-4,578,-2,21.9,4.4,-21.0,21.7,4.5,-20.8,5.73,1.86,-13.6,25.9
2015-04-25 02:48:00,2.0,1.84577,0.00027,389.669,0.029,0.0005,0.0017,139.997,45.000,31384.72390,1.84581,389.671,31.876,45.068,45.000,0.00,0.09,-272.71,-272.78,-3,578,-2,21.9,4.4,-21.0,21.7,4.5,-20.8,5.73,1.95,-13.6,26.0
2015-04-25 02:49:00,2.0,1.84558,0.00035,389.666,0.018,-0.0009,0.0019,139.999,45.000,31385.85004,1.84557,389.663,31.877,45.069,45.000,0.00,0.09,-272.72,-272.78,-3,578,-2,21.9,4.3,-21.1,21.7,4.5,-20.9,5.73,2.01,-13.6,26.0